Regional Weather Roundup
Issued by NWS Upton, NY

Current Version | Previous Version | Graphics & Text | Print | Product List | Glossary Off
Versions: 1 2 3 4 5 6 7 8 9 10 11 12 13 14 15 16 17 18 19 20 21 22 23 24 25 26 27

000
ASUS41 KOKX 200105
RWROKX

Regional Weather Roundup
National Weather Service New York NY
800 PM EST MON FEB 19 2018

Note: "FAIR" indicates few or no clouds below 12,000 feet with no
significant weather and/or obstructions to visibility.

NYZ071-072-176-178-NJZ106-104-200200-
New York City Metro Area

CITY           SKY/WX    TMP DP  RH WIND       PRES   REMARKS
Central Park   LGT RAIN  48  46  93 CALM      30.36S FOG
Bronx Bot Gard   N/A     45  43  93 E2        30.37R
Bronx Lehman C   N/A     48  45  87 S3          N/A
LaGuardia Arpt LGT RAIN  47  44  90 S5        30.35R
Queens College   N/A     45  45 100 S7          N/A
Kennedy Intl   LGT RAIN  44  44 100 S9        30.37S
Breezy Point     N/A     41 N/A N/A S7          N/A
Brooklyn Coll    N/A     45  45 100 SE1         N/A
Staten Island    N/A     46  46 100 S1          N/A
Newark/Liberty LGT RAIN  47  45  93 CALM      30.35S FOG
Teterboro      LGT RAIN  46  44  93 VRB5      30.35R FOG
$$

NYZ177-179-078>081-200200-
Long Island New York

CITY           SKY/WX    TMP DP  RH WIND       PRES   REMARKS
Jones Beach      N/A     41 N/A N/A S8          N/A
Wantagh          N/A     45  43  93 S8          N/A
Hempstead      NOT AVBL
Matinecock Pt    N/A     46 N/A N/A SW9         N/A
Farmingdale    CLOUDY    45  45 100 S13       30.36F
MacArthur/ISP  LGT RAIN  47  47 100 S12       30.36S FOG
Shirley        LGT RAIN  46  46 100 S9        30.37F
Mt Sinai Harb    N/A    N/A N/A N/A S9G15       N/A
Westhampton    CLOUDY    48  46  93 S9        30.39S
East Hampton   CLOUDY    47  45  92 S12G17    30.37F
Southold         N/A     46  45  93 S8          N/A
Montauk        NOT AVBL
$$

NYZ052-065-067-200200-
Hudson Valley

CITY           SKY/WX    TMP DP  RH WIND       PRES   REMARKS
White Plains   FOG       44  43  96 CALM      30.34R VSB 1
Larchmont Harb   N/A     43 N/A N/A SW7         N/A
Croton On Huds   N/A     43 N/A N/A MISG        N/A
Somers           N/A     41  41 100 SW3         N/A
Brewster         N/A     41  41 100 W2          N/A
Newburgh       LGT RAIN  39  39 100 CALM      30.35R FOG
Montgomery     LGT RAIN  37  36  96 SE3       30.33R VSB 1
Otisville        N/A     37  37 100 SW2         N/A
Warwick          N/A     41  41 100 W2          N/A
Suffern          N/A     39  39 100 SW1         N/A
Poughkeepsie   LGT RAIN  39  38  96 CALM      30.35R FOG
Albany         LGT RAIN  40  37  89 S13       30.27S FOG     WCI  32
$$

NJZ001-105-106-008-010-013-015-019>022-104-200200-
New Jersey

CITY           SKY/WX    TMP DP  RH WIND       PRES   REMARKS
Newark/Liberty LGT RAIN  47  45  93 CALM      30.35S FOG
Teterboro      LGT RAIN  46  44  93 VRB5      30.35R FOG
Caldwell       LGT RAIN  41  41 100 CALM      30.36R FOG
Somerville     FOG       40  40 100 NW3       30.34R VSB 3/4
Linden         CLOUDY    46  44  93 CALM      30.36R FOG
Perth Amboy      N/A     45 N/A N/A E1          N/A
Sussex         LGT RAIN  39  38  96 SW5       30.33S FOG
Andover          N/A     38  38 100 S3        30.34S
Trenton        CLOUDY    46  44  93 CALM      30.35S FOG
Millville      CLOUDY    52  50  93 VRB5      30.35F
Atlantic City  CLOUDY    51  49  92 S10G21    30.37S
Wrightstown    CLOUDY    52  49  89 SW7       30.32
Toms River     CLOUDY    53  50  89 S12       30.36F
Belmar         CLOUDY    52  50  93 S9        30.36F
$$

PAZ047>061-062-071-200200-
Eastern Pennsylvania

CITY           SKY/WX    TMP DP  RH WIND       PRES   REMARKS
Philadelphia   CLOUDY    48  45  89 CALM      30.35F
Allentown      FOG       38  36  92 NE3       30.35S VSB 1/2
Scranton       LGT RAIN  44  41  89 SW8       30.29S
$$

CTZ002-004>006-009-010-012-RIZ004-006-007-MAZ004-011-015-200200-
Southern New England

 In CT

CITY           SKY/WX    TMP DP  RH WIND       PRES   REMARKS
Bradley Intl   LGT RAIN  44  43  96 S8        30.32F
Hartford       CLOUDY    46  44  93 S7        30.33F
Danbury        LGT RAIN N/A N/A N/A SW7       30.35R
Wtrbury/Oxford LGT RAIN  43  43 100 SW6       30.34R VSB 1/2
Norwalk Harbor   N/A     41 N/A N/A SW7         N/A
Bridgeport     LGT RAIN  43  41  93 SW5       30.35S FOG
Meriden        LGT RAIN  44  43  96 S7        30.34F FOG
New Haven      LGT RAIN  43  40  89 S3        30.35S FOG
Chester        LGT RAIN  48  46  93 SW9G17    30.34S
Groton         LGT RAIN  44  42  93 SW7       30.37S
Willimantic    CLOUDY    46  44  93 S5        30.34F

 In RI

CITY           SKY/WX    TMP DP  RH WIND       PRES   REMARKS
Providence     LGT RAIN  47  45  93 S9        30.37S
Block Island   LGT RAIN  46  44  93 SW15      30.38F
Westerly       LGT RAIN  48  46  93 SW14      30.37F

In MA

CITY           SKY/WX    TMP DP  RH WIND       PRES   REMARKS
Boston         LGT RAIN  47  44  90 SW14      30.31F
Worcester      LGT RAIN  42  40  92 SW18      30.29S
Westfield      CLOUDY    41  41 100 SW3       30.33R FOG
Provincetown   LGT RAIN  44  42  93 S14       30.36F
Nantucket      LGT RAIN  45  44  97 S13       30.42F
$$

ANZ330-335-338-340-345-350-353-355-200200-
Coastal Marine Observations


STATION/POSITION TIME  SKY/WX   TEMP    WIND        PRES    VSBY  WAVE
                                AIR SEA DIR/SP/G                  HT/PER
                 (UTC)          (F)     (DEG/KT/KT) (MB)    (MI)  (FT/S)
NY Harb Entrance 0050            42 39  200/ 12/ 14 1027.7          3/11
20 S Fire Island 0050            47 42  200/ 12/ 14 1028.6          3/11
15 E Barnegat Li 0030               40                N/A           3/12
Hudson Canyon    0050            51 46  170/ 14/ 16 1029.3          3/10
Kings Point      0030            43 37  220/  8/ 10 1028.3
Execution Rocks  NOT AVBL
Western LI Sound NOT AVBL
Central LI Sound 0045            42     190/  4/  6   N/A           0
Robbins Reef     0030            44     170/  8/  9 1027.8
$$


>>>>>>>>>>>>>>>>>>>>>>>>>>>> KEY <<<<<<<<<<<<<<<<<<<<<<<<<<<
>                                                          <
>     SKY/WX - Sky Condition/Present Weather               <
>     TMP    - Temperature in Fahrenheit                   <
>     DP     - Dew Point in Fahrenheit                     <
>     RH     - Relative Humidity in Percent                <
>     WIND   - Direction (from) and Speed in MPH           <
>     PRES   - Mean Sea Level Pressure (inches of Hg)      <
>     WCI    - Wind Chill Index                            <
>     VSB    - Visibility in Miles                         <
>     HX     - Heat Index                                  <
>     TC     - Temperature in Celsius                      <
>     VRB    - Varibale Wind Direction                     <
>                                                          <
>>>>>>>>>>>>>>>>>>>>>>>>>>>> KEY <<<<<<<<<<<<<<<<<<<<<<<<<<<




USA.gov is the U.S. government's official web portal to all federal, state and local government web resources and services.